SES-7 (PROTOSTAR 2)

Last updated on Mon Oct 14 2024 00:02:38 GMT+0000 (Coordinated Universal Time)

1 34941U 09027A 24287.49960174 -.00000347 00000+0 00000+0 0 9995 2 34941 0.1060 79.3700 0001021 161.5597 69.7500 1.00271385 56492
UTC large
Height (km)
Speed (km/s)
/
Latitude / Longitude
Inclination (degrees)
Orbital Period (minutes)
Azimuth
Elevation
Range (km)
Doppler Factor

Next 0 passes for location: London (51.5072 / 0.1276)

Sorry there are no passes over London.